{"data":{"norad_id":61954,"epoch":"2026-05-24T21:06:57.217824Z","epoch_age_seconds":82274,"freshness":"FRESH","line1":"1 61954U 24209R   26144.87982891  .00045995  00000+0  10589-2 0  9997","line2":"2 61954  53.1582 146.2556 0001350  87.6894 272.4266 15.42193176 86610","mean_motion":15.42193176,"eccentricity":0.000135,"inclination_deg":53.1582,"raan_deg":146.2556,"arg_perigee_deg":87.6894,"mean_anomaly_deg":272.4266,"bstar":0.0010589,"rev_number":8661,"period_min":93.37351652242,"perigee_km":438.71747535065,"apogee_km":440.55827456689,"semimajor_km":6817.7748749588,"source":"CELESTRAK","updated_at":"2026-05-25T13:38:19.489387Z"}}